Year,Month,Day,Hour,Minute,Value (Times are PST for temperature in C)
2010,10,21,09,58,10.20
2010,10,21,09,59,10.20
2010,10,21,10,00,10.30
2010,10,21,10,01,10.30
2010,10,21,10,02,10.30
2010,10,21,10,03,10.40
2010,10,21,10,04,10.30
2010,10,21,10,05,10.30
2010,10,21,10,06,10.40
2010,10,21,10,07,10.40
2010,10,21,10,08,10.30
2010,10,21,10,09,10.30
2010,10,21,10,10,10.30
2010,10,21,10,11,10.30
2010,10,21,10,12,10.30
2010,10,21,10,13,10.30
2010,10,21,10,14,10.30
2010,10,21,10,15,10.30
2010,10,21,10,16,10.30
2010,10,21,10,17,10.30
2010,10,21,10,18,10.30
2010,10,21,10,19,10.30
2010,10,21,10,20,10.30
2010,10,21,10,21,10.20
2010,10,21,10,22,10.20
2010,10,21,10,23,10.10
2010,10,21,10,24,10.10
2010,10,21,10,25,10.10
2010,10,21,10,26,10.10
2010,10,21,10,27,10.10
2010,10,21,10,28,10.10
2010,10,21,10,29,10.10
2010,10,21,10,30,10.10
2010,10,21,10,31,10.10
2010,10,21,10,32,10.10
2010,10,21,10,33,10.10
2010,10,21,10,34,10.10
2010,10,21,10,35,10.10
2010,10,21,10,36,10.10
2010,10,21,10,37,10.10
2010,10,21,10,38,10.10
2010,10,21,10,39,10.10
2010,10,21,10,40,10.10
2010,10,21,10,41,10.10
2010,10,21,10,42,10.10
2010,10,21,10,43,10.10
2010,10,21,10,44,10.10
2010,10,21,10,45,10.10
2010,10,21,10,46,10.10
2010,10,21,10,47,10.10
2010,10,21,10,48,10.20
2010,10,21,10,49,10.20
2010,10,21,10,50,10.20
2010,10,21,10,51,10.30
2010,10,21,10,52,10.30
2010,10,21,10,53,10.30
2010,10,21,10,54,10.30
2010,10,21,10,55,10.30
2010,10,21,10,56,10.30
2010,10,21,10,57,10.30
2010,10,21,10,58,10.30
2010,10,21,10,59,10.30
2010,10,21,11,00,10.30
2010,10,21,11,01,10.40
2010,10,21,11,02,10.40
2010,10,21,11,03,10.40
2010,10,21,11,04,10.40
2010,10,21,11,05,10.30
2010,10,21,11,06,10.30
2010,10,21,11,07,10.30
2010,10,21,11,08,10.30
2010,10,21,11,09,10.40
2010,10,21,11,10,10.40
2010,10,21,11,11,10.30
2010,10,21,11,12,10.30
2010,10,21,11,13,10.30
2010,10,21,11,14,10.20
2010,10,21,11,15,10.20
2010,10,21,11,16,10.20
2010,10,21,11,17,10.20
2010,10,21,11,18,10.20
2010,10,21,11,19,10.10
2010,10,21,11,20,10.10
2010,10,21,11,21,10.10
2010,10,21,11,22,10.10
2010,10,21,11,23,10.10
2010,10,21,11,24,10.10
2010,10,21,11,25,10.10
2010,10,21,11,26,10.10
2010,10,21,11,27,10.10
2010,10,21,11,28,10.10
2010,10,21,11,29,10.10
2010,10,21,11,30,10.10
2010,10,21,11,31,10.10
2010,10,21,11,32,10.10
2010,10,21,11,33,10.10
2010,10,21,11,34,10.10
2010,10,21,11,35,10.10
2010,10,21,11,36,10.10
2010,10,21,11,37,10.10
2010,10,21,11,38,10.10
2010,10,21,11,39,10.10
2010,10,21,11,40,10.10
2010,10,21,11,41,10.10
2010,10,21,11,42,10.10
2010,10,21,11,43,10.10
2010,10,21,11,44,10.10
2010,10,21,11,45,10.10
2010,10,21,11,46,10.10
2010,10,21,11,47,10.10
2010,10,21,11,48,10.10
2010,10,21,11,49,10.10
2010,10,21,11,50,10.10
2010,10,21,11,51,10.10
2010,10,21,11,52,9.90
2010,10,21,11,53,9.90
2010,10,21,11,54,9.90
2010,10,21,11,55,9.90
2010,10,21,11,56,9.80
2010,10,21,11,57,9.80
2010,10,21,11,58,9.90
2010,10,21,11,59,9.90
2010,10,21,12,00,9.90
2010,10,21,12,01,9.90
2010,10,21,12,02,9.90
2010,10,21,12,03,9.90
2010,10,21,12,04,9.90
2010,10,21,12,05,9.90
2010,10,21,12,06,9.90
2010,10,21,12,07,9.90
2010,10,21,12,08,9.90
2010,10,21,12,09,9.90
2010,10,21,12,10,9.90
2010,10,21,12,11,9.90
2010,10,21,12,12,9.90
2010,10,21,12,13,9.90
2010,10,21,12,14,9.90
2010,10,21,12,15,9.90
2010,10,21,12,16,9.90
2010,10,21,12,17,9.90
2010,10,21,12,18,10.00
2010,10,21,12,19,10.10
2010,10,21,12,20,10.10
2010,10,21,12,21,10.10
2010,10,21,12,22,10.10
2010,10,21,12,23,10.10
2010,10,21,12,24,10.00
2010,10,21,12,25,9.90
2010,10,21,12,26,9.90
2010,10,21,12,27,9.90
2010,10,21,12,28,9.90
2010,10,21,12,29,10.00
2010,10,21,12,30,9.90
2010,10,21,12,31,9.90
2010,10,21,12,32,9.90
2010,10,21,12,33,9.90
2010,10,21,12,34,9.90
2010,10,21,12,35,9.90
2010,10,21,12,36,9.90
2010,10,21,12,37,9.90
2010,10,21,12,38,9.90
2010,10,21,12,39,9.90
2010,10,21,12,40,9.90
2010,10,21,12,41,9.80
2010,10,21,12,42,9.80
2010,10,21,12,43,9.80
2010,10,21,12,44,9.80
2010,10,21,12,45,9.80
2010,10,21,12,46,9.80
2010,10,21,12,47,9.90
2010,10,21,12,48,9.90
2010,10,21,12,49,9.90
2010,10,21,12,50,9.90
2010,10,21,12,51,9.90
2010,10,21,12,52,9.90
2010,10,21,12,53,9.90
2010,10,21,12,54,9.90
2010,10,21,12,55,9.90
2010,10,21,12,56,10.00
2010,10,21,12,57,10.10
2010,10,21,12,58,10.10
2010,10,21,12,59,10.20
2010,10,21,13,00,10.20
2010,10,21,13,01,10.20
2010,10,21,13,02,10.20
2010,10,21,13,03,10.20
2010,10,21,13,04,10.20
2010,10,21,13,05,10.20
2010,10,21,13,06,10.30
2010,10,21,13,07,10.30
2010,10,21,13,08,10.30
2010,10,21,13,09,10.30
2010,10,21,13,10,10.40
2010,10,21,13,11,10.40
2010,10,21,13,12,10.30
2010,10,21,13,13,10.20
2010,10,21,13,14,10.20
2010,10,21,13,15,10.10
2010,10,21,13,16,10.10
2010,10,21,13,17,10.10
2010,10,21,13,18,10.10
2010,10,21,13,19,10.10
2010,10,21,13,20,10.10
2010,10,21,13,21,10.10
2010,10,21,13,22,10.20
2010,10,21,13,23,10.20
2010,10,21,13,24,10.30
2010,10,21,13,25,10.30
2010,10,21,13,26,10.40
2010,10,21,13,27,10.40
2010,10,21,13,28,10.40
2010,10,21,13,29,10.60
2010,10,21,13,30,10.60
2010,10,21,13,31,10.60
2010,10,21,13,32,10.60
2010,10,21,13,33,10.70
2010,10,21,13,34,10.70
2010,10,21,13,35,10.70
2010,10,21,13,36,10.70
2010,10,21,13,37,10.60
2010,10,21,13,38,10.60
2010,10,21,13,39,10.60
2010,10,21,13,40,10.70
2010,10,21,13,41,10.70
2010,10,21,13,42,10.70
2010,10,21,13,43,10.80
2010,10,21,13,44,10.80
2010,10,21,13,45,10.80
2010,10,21,13,46,10.80
2010,10,21,13,47,10.80
2010,10,21,13,48,10.80
2010,10,21,13,49,10.80
2010,10,21,13,50,10.80
2010,10,21,13,51,10.80
2010,10,21,13,52,10.80
2010,10,21,13,53,10.80
2010,10,21,13,54,10.70
2010,10,21,13,55,10.70
2010,10,21,13,56,10.70
2010,10,21,13,57,10.60
2010,10,21,13,58,10.60
2010,10,21,13,59,10.60
2010,10,21,14,00,10.70
2010,10,21,14,01,10.70
2010,10,21,14,02,10.70
2010,10,21,14,03,10.80
2010,10,21,14,04,10.80
2010,10,21,14,05,10.90
2010,10,21,14,06,10.90
2010,10,21,14,07,10.90
2010,10,21,14,08,10.80
2010,10,21,14,09,10.80
2010,10,21,14,10,10.70
2010,10,21,14,11,10.80
2010,10,21,14,12,10.80
2010,10,21,14,13,10.80
2010,10,21,14,14,10.80
2010,10,21,14,15,10.80
2010,10,21,14,16,10.90
2010,10,21,14,17,10.90
2010,10,21,14,18,10.90
2010,10,21,14,19,10.90
2010,10,21,14,20,10.80
2010,10,21,14,21,10.80
2010,10,21,14,22,10.80
2010,10,21,14,23,10.70
2010,10,21,14,24,10.60
2010,10,21,14,25,10.60
2010,10,21,14,26,10.40
2010,10,21,14,27,10.30
2010,10,21,14,28,10.30
2010,10,21,14,29,10.20
2010,10,21,14,30,10.10
2010,10,21,14,31,10.10
2010,10,21,14,32,9.90
2010,10,21,14,33,9.90
2010,10,21,14,34,9.90
2010,10,21,14,35,9.90
2010,10,21,14,36,9.90
2010,10,21,14,37,10.00
2010,10,21,14,38,10.10
2010,10,21,14,39,10.10
2010,10,21,14,40,10.10
2010,10,21,14,41,10.10
2010,10,21,14,42,10.10
2010,10,21,14,43,10.10
2010,10,21,14,44,10.00
2010,10,21,14,45,9.90
2010,10,21,14,46,9.90
2010,10,21,14,47,9.90
2010,10,21,14,48,9.90
2010,10,21,14,49,9.90
2010,10,21,14,50,9.90
2010,10,21,14,51,9.90
2010,10,21,14,52,9.90
2010,10,21,14,53,9.90
2010,10,21,14,54,9.90
2010,10,21,14,55,9.80
2010,10,21,14,56,9.90
2010,10,21,14,57,9.80
2010,10,21,14,58,9.80
2010,10,21,14,59,9.80
2010,10,21,15,00,9.80
2010,10,21,15,01,9.80
2010,10,21,15,02,9.90
2010,10,21,15,03,9.90
2010,10,21,15,04,9.90
2010,10,21,15,05,9.90
2010,10,21,15,06,9.90
2010,10,21,15,07,10.00
2010,10,21,15,08,10.10
2010,10,21,15,09,10.10
2010,10,21,15,10,10.10
2010,10,21,15,11,10.10
2010,10,21,15,12,10.00
2010,10,21,15,13,9.90
2010,10,21,15,14,9.90
2010,10,21,15,15,9.90
2010,10,21,15,16,9.90
2010,10,21,15,17,9.90
2010,10,21,15,18,9.90
2010,10,21,15,19,9.90
2010,10,21,15,20,10.00
2010,10,21,15,21,10.10
2010,10,21,15,22,10.10
2010,10,21,15,23,10.10
2010,10,21,15,24,10.20
2010,10,21,15,25,10.20
2010,10,21,15,26,10.30
2010,10,21,15,27,10.30
2010,10,21,15,28,10.40
2010,10,21,15,29,10.40
2010,10,21,15,30,10.40
2010,10,21,15,31,10.40
2010,10,21,15,32,10.40
2010,10,21,15,33,10.40
2010,10,21,15,34,10.40
2010,10,21,15,35,10.40
2010,10,21,15,36,10.30
2010,10,21,15,37,10.30
2010,10,21,15,38,10.20
2010,10,21,15,39,10.20
2010,10,21,15,40,10.20
2010,10,21,15,41,10.20
2010,10,21,15,42,10.10
2010,10,21,15,43,10.10
2010,10,21,15,44,10.10
2010,10,21,15,45,10.10
2010,10,21,15,46,10.10
2010,10,21,15,47,10.00
2010,10,21,15,48,9.90
2010,10,21,15,49,9.90
2010,10,21,15,50,9.90
2010,10,21,15,51,9.90
2010,10,21,15,52,9.90
2010,10,21,15,53,9.90
2010,10,21,15,54,9.90
2010,10,21,15,55,9.80
2010,10,21,15,56,9.80
2010,10,21,15,57,9.80
2010,10,21,15,58,9.80
2010,10,21,15,59,9.80
2010,10,21,16,00,9.80
2010,10,21,16,01,9.80
2010,10,21,16,02,9.80
2010,10,21,16,03,9.80
2010,10,21,16,04,9.80
2010,10,21,16,05,9.80
2010,10,21,16,06,9.80
2010,10,21,16,07,9.80
2010,10,21,16,08,9.80
2010,10,21,16,09,9.80
2010,10,21,16,10,9.80
2010,10,21,16,11,9.80
2010,10,21,16,12,9.80
2010,10,21,16,13,9.80
2010,10,21,16,14,9.80
2010,10,21,16,15,9.80
2010,10,21,16,16,9.80
2010,10,21,16,17,9.90
2010,10,21,16,18,9.90
2010,10,21,16,19,9.90
2010,10,21,16,20,9.90
2010,10,21,16,21,9.90
2010,10,21,16,22,9.90
2010,10,21,16,23,9.90
2010,10,21,16,24,9.90
2010,10,21,16,25,9.90
2010,10,21,16,26,9.80
2010,10,21,16,27,9.80
2010,10,21,16,28,9.80
2010,10,21,16,29,9.80
2010,10,21,16,30,9.80
2010,10,21,16,31,9.80
2010,10,21,16,32,9.80
2010,10,21,16,33,9.80
2010,10,21,16,34,9.80
2010,10,21,16,35,9.80
2010,10,21,16,36,9.80
2010,10,21,16,37,9.80
2010,10,21,16,38,9.80
